COSMOS 2491 DEB, 57563

Orbit data source: Space-Track

COSMOS 2491 DEB, 57563 is space debris in LEO originally from a launch on Wed, 25 Dec 2013 UTC launched from the Plesetsk Missile And Space Complex (PKMTR). Debris objects in space refer to the collection of defunct objects orbiting the Earth. Examples of debris include non-operational satellites, rocket bodies, and fragments generated from explosions, collisions, or faulty payload assembly.

Loading next visibility...
Identifier
57563, 2013-076BA
Orbit
LEO
Country
Flag of CISCIS
Related business
Manufacturer
TsNIIKhM
Mission
Spacecraft
Bus & Motor
Unknown
Mass
Unknown
Launch date (UTC)
2013-12-25 (13 years ago)
Launch vehicle
Unknown
Launch site
Plesetsk Missile And Space Complex (PKMTR)
Object type
Payload
Rocket body
Debris
Shape & HBR
Unknown shape, 0.1 m
Radar Cross Section
Small (<0.1 m²)

Expand to show TLE details & history
Last TLE update: 1 week ago

TLE from 1 week ago
0 COSMOS 2491 DEB
1 57563U 13076BA  26245.85924350  .00002080  00000-0  11452-1 0  9992
2 57563  82.4721  86.9945 0046013 231.2167 128.4810 12.62797944152428
Epoch: 2026-09-02T20:37Z
TLE epoch observation values (Epoch: 2026-09-02T20:37:18.638Z)
Latitude
-0.00001°
Longitude
155.66111°
Altitude
1,436.552 km
Speed
7.133 km/s
True Right ascension
05h 47m 58s
True Declination
0° 00' 00"
Sunlit
Object was in daylight at epoch
Visualization orbit readout
Latitude
Unknown
Longitude
Unknown
Altitude
Unknown
Speed
Unknown
Apparent Right ascension
Unknown
Apparent Declination
Unknown
Sunlit
N/A
Visualization observer readout
Local Sidereal Time
22:28:33
Azimuth
Unknown
Elevation
Unknown
Doppler factor
Unknown
Orbital elements
Apogee altitude
1,444.571 km
Perigee altitude
1,372.911 km
Semi-major axis
7,786.878 km
Eccentricity
0.0046
Inclination
82.4721°
RAAN
86.9945°
Arg. of periapsis
231.2167°
True anomaly
128.89228°
Mean anomaly
128.481°
Eccentric anomaly
128.68679°
Mean motion
3.15863 °/min
Orbital period
113.97 mins
BSTAR
0.011452
Loading maneuver chart data...
Computing Atmospheric mass density...
Loading historical data...
Loading historical data...
Loading historical data...
Loading historical data...
Loading historical data...
Loading historical data...
Loading historical data...

Documentation

Showing up to 5 results
|